Location: Haieshausen
(51.8387°N, 9.9720°E)
Time: 04:29:41
(UTC+00:00)

Cosmos 2061 Rocket - Pass Details

Date: 14 July 2020
Orbit: 965 x 1014 km, 82.9° (Epoch: 10 August)

Event Time Altitude Azimuth Distance (km) Brightness Sun altitude
Exits shadow 01:41:58 13° 204° (SSW) 2,522 5.5 -10.7°
Maximum altitude 01:47:35 63° 284° (WNW) 1,102 4.2 -10.3°
Drops below altitude 10° 01:53:50 10° 5° (N) 2,748 7.4 -9.7°
Sets 01:56:24 0° 9° (N) 3,694 8.3 -9.5°
